Weather History for KIWA - December, 2012

Change the Weather History Date:

Saturday, December 8, 2012

  Actual Average Record
Temperature  
Mean Temperature 58 °F -  
Max Temperature 71 °F 63 °F 82 °F (2010)
Min Temperature 44 °F 39 °F 35 °F (2005)
Degree Days  
Heating Degree Days 8    
Growing Degree Days 8 (Base 50)    
Moisture  
Dew Point 34 °F    
Average Humidity 50    
Maximum Humidity 71    
Minimum Humidity 22    
Precipitation  
Precipitation 0.00 in - - ()
Sea Level Pressure  
Sea Level Pressure 29.93 in    
Wind  
Wind Speed 6 mph (ESE)    
Max Wind Speed 9 mph    
Max Gust Speed -    
Visibility 12 miles    
Events      
Averages and records for this station are not official NWS values.
T = Trace of Precipitation, MM = Missing Value Source: NWS Daily Summary

Daily Weather History Graph

Daily Weather History Graph

Search for Another Location

Airport or City:

Trip Planner

Search our weather history database for the weather conditions in past years. The results will help you decide how hot, cold, wet, or windy it might be!

Date:

Astronomy

Dec. 08, 2012 Rise Set
Actual Time 7:18 AM MST 5:19 PM MST
Civil Twilight 6:51 AM MST 5:46 PM MST
Nautical Twilight 6:20 AM MST 6:17 PM MST
Astronomical Twilight 5:50 AM MST 6:47 PM MST
Moon 1:59 AM MST (12/8) 1:40 PM MST (12/8)
Length of Visible Light 10h 55m
Length of Day
10h 00m
Waning Crescent, 27% of the Moon is Illuminated
Dec 8
Waning Crescent
Dec 13
New
Dec 19
First Quarter
Dec 28
Full
Jan 4
Last Quarter

Hourly Weather History & Observations

Time (MST) Temp. Windchill Dew Point Humidity Pressure Visibility Wind Dir Wind Speed Gust Speed Precip Events Conditions
12:15 AM 50.0 °F - 35.6 °F 58% 29.93 in 10.0 mi SE 6.9 mph - N/A   Clear
12:35 AM 50.0 °F - 35.6 °F 58% 29.93 in 10.0 mi ESE 5.8 mph - N/A   Clear
12:55 AM 50.0 °F - 35.6 °F 58% 29.93 in 10.0 mi ESE 5.8 mph - N/A   Clear
1:15 AM 50.0 °F - 35.6 °F 58% 29.93 in 10.0 mi ESE 8.1 mph - N/A   Clear
1:35 AM 48.2 °F - 33.8 °F 58% 29.93 in 10.0 mi ESE 5.8 mph - N/A   Clear
1:55 AM 46.4 °F 44.3 °F 33.8 °F 62% 29.93 in 10.0 mi ESE 4.6 mph - N/A   Clear
2:15 AM 46.4 °F 42.9 °F 33.8 °F 62% 29.93 in - ESE 6.9 mph - N/A   Clear
2:35 AM 50.0 °F - 35.6 °F 58% 29.93 in 10.0 mi ESE 6.9 mph - N/A   Clear
2:55 AM 50.0 °F - 35.6 °F 58% 29.92 in 10.0 mi ESE 8.1 mph - N/A   Clear
3:15 AM 50.0 °F - 35.6 °F 58% 29.92 in 10.0 mi ESE 8.1 mph - N/A   Clear
3:35 AM 50.0 °F - 35.6 °F 58% 29.92 in 10.0 mi ESE 6.9 mph - N/A   Clear
3:55 AM 50.0 °F - 35.6 °F 58% 29.93 in 10.0 mi ESE 6.9 mph - N/A   Clear
4:15 AM 48.2 °F - 35.6 °F 62% 29.93 in 10.0 mi ESE 9.2 mph - N/A   Clear
4:35 AM 48.2 °F - 35.6 °F 62% 29.93 in 10.0 mi ESE 8.1 mph - N/A   Clear
4:55 AM 46.4 °F 42.9 °F 33.8 °F 62% 29.93 in 10.0 mi ESE 6.9 mph - N/A   Clear
5:15 AM 44.6 °F 42.2 °F 33.8 °F 66% 29.93 in 10.0 mi ESE 4.6 mph - N/A   Clear
5:47 AM 44.6 °F 43.1 °F 35.6 °F 71% 29.93 in 20.0 mi Variable 3.5 mph - N/A   Clear
6:47 AM 44.6 °F 40.7 °F 35.6 °F 71% 29.95 in 20.0 mi ESE 6.9 mph - N/A   Clear
7:47 AM 44.6 °F 39.7 °F 35.6 °F 71% 29.96 in 45.0 mi ESE 9.2 mph - N/A   Partly Cloudy
8:47 AM 53.6 °F - 37.4 °F 54% 29.98 in 45.0 mi ESE 6.9 mph - N/A   Partly Cloudy
10:04 AM 57.2 °F - 39.2 °F 51% 29.99 in 35.0 mi East 4.6 mph - N/A   Partly Cloudy
10:47 AM 62.6 °F - 37.4 °F 39% 29.98 in 35.0 mi SSE 5.8 mph - N/A   Partly Cloudy
11:47 AM 66.2 °F - 37.4 °F 35% 29.96 in 35.0 mi SSE 5.8 mph - N/A   Partly Cloudy
12:47 PM 68.0 °F - 37.4 °F 33% 29.93 in 35.0 mi SSW 5.8 mph - N/A   Partly Cloudy
1:47 PM 71.6 °F - 37.4 °F 29% 29.91 in 35.0 mi Calm Calm - N/A   Partly Cloudy
2:47 PM 71.6 °F - 35.6 °F 27% 29.90 in 35.0 mi West 4.6 mph - N/A   Partly Cloudy
3:50 PM 71.6 °F - 33.8 °F 25% 29.90 in 35.0 mi West 5.8 mph - N/A   Partly Cloudy
4:47 PM 71.6 °F - 30.2 °F 22% 29.90 in 35.0 mi West 5.8 mph - N/A   Scattered Clouds
5:47 PM 66.2 °F - 32.0 °F 28% 29.90 in 20.0 mi Calm Calm - N/A   Scattered Clouds
6:47 PM 62.6 °F - 30.2 °F 30% 29.91 in 20.0 mi Calm Calm - N/A   Scattered Clouds
7:47 PM 55.4 °F - 33.8 °F 44% 29.92 in 20.0 mi Variable 4.6 mph - N/A   Scattered Clouds
7:55 PM 55.4 °F - 32.0 °F 41% 29.92 in 10.0 mi Calm Calm - N/A   Clear
8:15 PM 51.8 °F - 32.0 °F 47% 29.92 in 10.0 mi ESE 4.6 mph - N/A   Clear
8:35 PM 51.8 °F - 32.0 °F 47% 29.93 in 10.0 mi East 4.6 mph - N/A   Clear
8:47 PM 53.6 °F - 30.2 °F 41% 29.93 in 20.0 mi East 4.6 mph - N/A   Scattered Clouds
8:55 PM 51.8 °F - 30.2 °F 44% 29.93 in 10.0 mi ESE 4.6 mph - N/A   Clear
9:15 PM 51.8 °F - 30.2 °F 44% 29.94 in 10.0 mi ESE 4.6 mph - N/A   Clear
9:35 PM 51.8 °F - 30.2 °F 44% 29.94 in 10.0 mi East 4.6 mph - N/A   Clear
9:55 PM 50.0 °F - 30.2 °F 47% 29.95 in 10.0 mi ESE 5.8 mph - N/A   Clear
10:15 PM 50.0 °F - 30.2 °F 47% 29.95 in 10.0 mi ESE 6.9 mph - N/A   Clear
10:35 PM 46.4 °F 42.9 °F 28.4 °F 50% 29.95 in 10.0 mi East 6.9 mph - N/A   Clear
10:55 PM 46.4 °F 42.9 °F 28.4 °F 50% 29.95 in 10.0 mi ESE 6.9 mph - N/A   Clear
11:15 PM 46.4 °F - 28.4 °F 50% 29.95 in - North - - N/A   Clear
11:35 PM 46.4 °F 44.3 °F 28.4 °F 50% 29.95 in 10.0 mi ESE 4.6 mph - N/A   Clear
11:55 PM 44.6 °F 42.2 °F 28.4 °F 53% 29.96 in 10.0 mi ESE 4.6 mph - N/A   Clear